DW7859 Edgewater MD US current weather conditions

sailwx.info

Wind from 276 at 0 knots gusting 2

Air temperature 4.4° C
Dewpoint -4.3° C

Last reported at 2020-Jan-29 07:55 UTC.
Time now 2020-Jan-29 09:14 UTC

Location: N 38°55' W 076°34'.
View on Google Maps.

See reports from other nearby stations

  
Tides and Currents Weather Stations Pressure Air Temp Water Temp Dewpoint Dewpoint Depression Visibility Wind Speed Wind Dir Waves Ship Positions
date/time (UTC)wind fromknots sea level pressurealtimeterstation pressurevisibilityair tempwater tempwave heightnotes
2020-Jan-29 07:55 276 0 gusting 2 4.4
2020-Jan-29 07:45 328 0 gusting 2 4.4
2020-Jan-29 07:35 273 0 gusting 2 4.4
2020-Jan-29 07:25 273 0 gusting 1 4.4
2020-Jan-29 07:15 274 0 gusting 1 4.4
2020-Jan-29 07:05 237 0 gusting 3 5.0
2020-Jan-29 06:55 236 0 gusting 3 5.0
2020-Jan-29 06:45 255 0 gusting 3 5.0
2020-Jan-29 06:35 309 0 gusting 3 5.0
2020-Jan-29 06:25 320 0 gusting 3 5.0
2020-Jan-29 06:15 269 0 gusting 3 5.0
2020-Jan-29 06:05 282 0 gusting 3 5.0
2020-Jan-29 05:55 286 0 gusting 1 5.0
2020-Jan-29 05:45 281 0 gusting 3 5.0
2020-Jan-29 05:35 259 0 gusting 3 5.0
2020-Jan-29 05:25 292 5.0
2020-Jan-29 05:15 304 0 gusting 3 5.0
2020-Jan-29 05:05 238 0 gusting 3 5.0
2020-Jan-29 04:55 281 1 gusting 2 5.0
2020-Jan-29 04:45 304 0 gusting 2 5.0
2020-Jan-29 04:35 301 0 gusting 2 5.0
2020-Jan-29 04:25 251 0 gusting 3 5.0
2020-Jan-29 04:15 251 2 gusting 3 5.0
2020-Jan-29 04:05 291 5.0
2020-Jan-29 03:55 291 5.6
2020-Jan-29 03:45 291 5.6
2020-Jan-29 03:35 291 5.6
2020-Jan-29 03:25 291 0 gusting 1 5.6
2020-Jan-29 03:15 291 0 gusting 2 5.6
2020-Jan-29 03:05 289 0 gusting 2 5.6
2020-Jan-29 02:55 310 1 gusting 3 5.6
2020-Jan-29 02:45 288 0 gusting 3 5.6
2020-Jan-29 02:35 285 0 gusting 2 5.6
2020-Jan-29 02:25 315 0 gusting 2 5.6
2020-Jan-29 02:15 252 0 gusting 4 6.1
2020-Jan-29 02:05 307 0 gusting 4 6.1
2020-Jan-29 01:55 334 1 gusting 3 6.1
2020-Jan-29 01:45 307 1 gusting 5 6.1
2020-Jan-29 01:35 309 0 gusting 6 6.1
2020-Jan-29 01:25 299 1 gusting 4 6.1
2020-Jan-29 01:15 354 0 gusting 5 6.1
2020-Jan-29 01:05 303 1 gusting 3 6.1
2020-Jan-29 00:55 262 0 gusting 2 6.1
2020-Jan-29 00:45 340 0 gusting 6 6.1
2020-Jan-29 00:35 340 0 gusting 6 6.1
2020-Jan-29 00:25 276 1 gusting 5 6.1
2020-Jan-29 00:15 317 1 gusting 3 6.1
2020-Jan-29 00:05 028 0 gusting 6 6.1
2020-Jan-28 23:55 246 1 gusting 6 6.1
2020-Jan-28 23:45 270 1 gusting 6 6.7
2020-Jan-28 23:35 299 1 gusting 5 6.7
2020-Jan-28 23:25 283 1 gusting 6 6.7
2020-Jan-28 23:15 311 1 gusting 6 6.7
2020-Jan-28 23:05 306 2 gusting 6 6.7
2020-Jan-28 22:55 320 1 gusting 5 6.7
2020-Jan-28 22:45 304 0 gusting 5 6.7
2020-Jan-28 22:35 327 2 gusting 6 6.7
2020-Jan-28 22:25 352 0 gusting 6 6.7
2020-Jan-28 22:15 299 0 gusting 4 6.7
2020-Jan-28 22:05 325 1 gusting 4 6.7
2020-Jan-28 21:55 305 2 gusting 4 6.7
2020-Jan-28 21:45 284 0 gusting 3 6.7
2020-Jan-28 21:35 004 1 gusting 3 6.7
2020-Jan-28 21:25 264 1 gusting 3 7.2
2020-Jan-28 21:15 236 1 gusting 6 7.2
2020-Jan-28 21:05 306 1 gusting 8 7.2
2020-Jan-28 20:55 263 1 gusting 8 7.2
2020-Jan-28 20:45 302 1 gusting 6 7.2
2020-Jan-28 20:34 315 1 gusting 8 7.2
2020-Jan-28 20:24 342 1 gusting 8 6.7
2020-Jan-28 20:14 301 0 gusting 5 6.7
2020-Jan-28 20:04 281 1 gusting 5 6.7
2020-Jan-28 19:54 324 0 gusting 5 6.7
2020-Jan-28 19:44 276 0 gusting 5 6.7
2020-Jan-28 19:34 296 1 gusting 5 6.7
2020-Jan-28 19:24 319 1 gusting 5 6.7
2020-Jan-28 19:14 304 0 gusting 5 6.7
2020-Jan-28 19:04 319 0 gusting 6 6.7
2020-Jan-28 18:54 259 1 gusting 6 6.7
2020-Jan-28 18:44 289 2 gusting 6 6.7
2020-Jan-28 18:34 329 0 gusting 6 6.7
2020-Jan-28 18:24 311 2 gusting 6 6.7
2020-Jan-28 18:14 318 0 gusting 5 6.7
2020-Jan-28 18:04 300 1 gusting 5 6.7
2020-Jan-28 17:54 355 1 gusting 4 6.7
2020-Jan-28 17:44 315 2 gusting 6 6.7
2020-Jan-28 17:34 300 2 gusting 6 6.7
2020-Jan-28 17:24 302 2 gusting 6 6.7
2020-Jan-28 17:14 349 1 gusting 6 6.7
2020-Jan-28 17:04 286 0 gusting 5 6.7
2020-Jan-28 16:54 288 1 gusting 5 6.7
2020-Jan-28 16:44 326 0 gusting 5 6.1
2020-Jan-28 16:34 294 1 gusting 8 6.1
2020-Jan-28 16:24 312 2 gusting 8 6.1
2020-Jan-28 16:14 272 1 gusting 5 6.1
2020-Jan-28 16:04 016 1 gusting 5 6.1
2020-Jan-28 15:54 296 1 gusting 4 6.1
2020-Jan-28 15:44 322 1 gusting 5 6.1
2020-Jan-28 15:34 335 1 gusting 6 6.1
2020-Jan-28 15:24 294 2 gusting 7 5.6
2020-Jan-28 15:14 287 1 gusting 7 5.6
2020-Jan-28 15:04 301 1 gusting 4 5.0
2020-Jan-28 14:54 301 1 gusting 3 5.0
2020-Jan-28 14:44 302 0 gusting 3 5.0
2020-Jan-28 14:34 275 1 gusting 3 5.0
2020-Jan-28 14:24 304 1 gusting 3 5.0
2020-Jan-28 14:14 250 1 gusting 3 4.4
2020-Jan-28 14:04 245 1 gusting 4 4.4
2020-Jan-28 13:54 251 2 gusting 4 4.4
2020-Jan-28 13:44 261 1 gusting 5 4.4
2020-Jan-28 13:34 261 0 gusting 6 4.4
2020-Jan-28 13:24 285 1 gusting 2 3.9
2020-Jan-28 13:14 253 1 gusting 2 3.9
2020-Jan-28 13:04 269 0 gusting 2 3.9
2020-Jan-28 12:54 259 1 gusting 2 3.9
2020-Jan-28 12:44 301 1 gusting 2 3.9
2020-Jan-28 12:34 269 0 gusting 3 3.9
2020-Jan-28 12:24 305 0 gusting 3 3.9
2020-Jan-28 12:14 247 1 gusting 3 3.9
2020-Jan-28 12:04 294 0 gusting 4 3.9
2020-Jan-28 11:54 247 1 gusting 4 3.9
2020-Jan-28 11:44 294 1 gusting 3 3.9
2020-Jan-28 11:34 326 1 gusting 3 3.9
2020-Jan-28 11:24 300 0 gusting 3 3.9
2020-Jan-28 11:14 305 0 gusting 3 3.9
2020-Jan-28 11:04 345 0 gusting 3 3.9
2020-Jan-28 10:54 293 1 gusting 3 3.9
2020-Jan-28 10:44 294 0 gusting 2 3.9
2020-Jan-28 10:34 291 0 gusting 2 3.9
2020-Jan-28 10:24 269 0 gusting 2 3.9
2020-Jan-28 10:14 285 0 gusting 3 3.9
2020-Jan-28 10:04 248 0 gusting 3 3.9
2020-Jan-28 09:54 292 0 gusting 2 4.4
2020-Jan-28 09:44 306 0 gusting 4 4.4
2020-Jan-28 09:34 299 1 gusting 4 4.4
2020-Jan-28 09:24 330 0 gusting 3 4.4
2020-Jan-28 09:14 252 0 gusting 2 4.4
2020-Jan-28 09:04 338 0 gusting 2 4.4
2020-Jan-28 08:54 266 1 gusting 2 4.4
2020-Jan-28 08:44 285 0 gusting 2 4.4
2020-Jan-28 08:34 248 0 gusting 2 4.4
2020-Jan-28 08:24 279 0 gusting 4 4.4
2020-Jan-28 08:14 275 4.4
2020-Jan-28 08:04 281 1 gusting 6 4.4
2020-Jan-28 07:54 028 0 gusting 6 4.4
2020-Jan-28 07:44 266 0 gusting 3 4.4
2020-Jan-28 07:34 272 0 gusting 3 4.4
2020-Jan-28 07:24 308 0 gusting 3 4.4
2020-Jan-28 07:14 022 0 gusting 3 4.4
2020-Jan-28 07:04 274 0 gusting 3 4.4
2020-Jan-28 06:54 277 0 gusting 3 4.4
2020-Jan-28 06:44 271 1 gusting 4 4.4
2020-Jan-28 06:34 281 0 gusting 5 4.4
2020-Jan-28 06:23 331 0 gusting 3 4.4
2020-Jan-28 06:13 289 1 gusting 3 4.4
2020-Jan-28 06:03 269 0 gusting 2 4.4
2020-Jan-28 05:53 301 0 gusting 3 4.4
2020-Jan-28 05:43 298 0 gusting 3 5.0
2020-Jan-28 05:33 280 1 gusting 3 5.0
2020-Jan-28 05:23 251 0 gusting 5 5.0
2020-Jan-28 05:13 288 0 gusting 6 5.0
2020-Jan-28 05:03 286 0 gusting 3 5.0
2020-Jan-28 04:53 246 1 gusting 3 5.0
2020-Jan-28 04:43 290 1 gusting 5 5.0
2020-Jan-28 04:33 259 0 gusting 5 5.0
2020-Jan-28 04:23 269 0 gusting 2 5.0
2020-Jan-28 04:13 302 1 gusting 3 5.0
2020-Jan-28 04:03 281 0 gusting 3 5.0
2020-Jan-28 03:53 263 0 gusting 3 5.0
2020-Jan-28 03:43 321 0 gusting 3 5.0
2020-Jan-28 03:33 247 1 gusting 3 5.0
2020-Jan-28 03:23 331 0 gusting 2 5.0
2020-Jan-28 03:13 332 0 gusting 3 5.0
2020-Jan-28 03:03 282 0 gusting 4 5.0
2020-Jan-28 02:53 257 0 gusting 4 5.0
2020-Jan-28 02:43 242 1 gusting 3 5.0
2020-Jan-28 02:33 242 0 gusting 3 5.0
2020-Jan-28 02:23 291 0 gusting 2 5.0
2020-Jan-28 02:13 253 1 gusting 2 5.0
2020-Jan-28 02:03 296 0 gusting 2 5.0
2020-Jan-28 01:53 282 0 gusting 2 5.0
2020-Jan-28 01:43 269 1 gusting 2 5.6
2020-Jan-28 01:33 269 0 gusting 2 5.6
2020-Jan-28 01:23 261 1 gusting 2 5.6
2020-Jan-28 01:13 259 1 gusting 2 6.1
2020-Jan-28 01:03 272 1 gusting 5 6.1
2020-Jan-28 00:53 285 1 gusting 5 6.1
2020-Jan-28 00:43 260 0 gusting 7 6.7
2020-Jan-28 00:33 277 1 gusting 7 6.7
2020-Jan-28 00:23 284 1 gusting 3 6.7
2020-Jan-28 00:13 292 0 gusting 3 6.7
2020-Jan-28 00:03 316 1 gusting 4 6.7
2020-Jan-27 23:53 277 1 gusting 3 7.2
2020-Jan-27 23:43 309 1 gusting 3 7.2
2020-Jan-27 23:33 297 1 gusting 6 7.2
2020-Jan-27 23:23 307 0 gusting 6 7.2
2020-Jan-27 23:13 338 1 gusting 5 7.2
2020-Jan-27 23:03 277 1 gusting 2 7.2
2020-Jan-27 22:53 275 0 gusting 2 7.2
2020-Jan-27 22:43 282 1 gusting 3 7.2
2020-Jan-27 22:33 300 0 gusting 3 7.8
2020-Jan-27 22:23 286 1 gusting 6 7.8
2020-Jan-27 22:13 296 0 gusting 6 7.8
2020-Jan-27 22:03 289 1 gusting 6 7.8
2020-Jan-27 21:53 300 0 gusting 2 7.8
2020-Jan-27 21:43 253 0 gusting 3 8.3
2020-Jan-27 21:33 262 0 gusting 3 8.3
2020-Jan-27 21:23 314 0 gusting 2 8.3
2020-Jan-27 21:13 271 1 gusting 2 8.3
2020-Jan-27 21:03 305 0 gusting 1 8.3
2020-Jan-27 20:53 238 0 gusting 3 8.3
2020-Jan-27 20:43 251 2 gusting 3 8.3
2020-Jan-27 20:33 252 0 gusting 3 8.3
2020-Jan-27 20:23 265 0 gusting 4 8.3
2020-Jan-27 20:13 251 0 gusting 5 8.3
2020-Jan-27 20:03 223 0 gusting 6 8.3
2020-Jan-27 19:53 297 1 gusting 6 8.3
2020-Jan-27 19:43 253 1 gusting 5 8.9
2020-Jan-27 19:33 256 1 gusting 5 8.9
2020-Jan-27 19:23 254 0 gusting 6 8.9
2020-Jan-27 19:13 297 1 gusting 6 8.9
2020-Jan-27 19:03 260 2 gusting 7 8.9
2020-Jan-27 18:53 243 2 gusting 7 8.3
2020-Jan-27 18:43 290 1 gusting 4 8.3
2020-Jan-27 18:33 315 0 gusting 5 8.3
2020-Jan-27 18:23 228 1 gusting 4 8.3
2020-Jan-27 18:13 252 1 gusting 5 8.3
2020-Jan-27 18:03 245 1 gusting 5 8.3
2020-Jan-27 17:53 223 1 gusting 7 8.3
2020-Jan-27 17:43 335 1 gusting 7 8.3
2020-Jan-27 17:33 261 2 gusting 5 8.3
2020-Jan-27 17:23 291 2 gusting 6 8.3
2020-Jan-27 17:13 265 1 gusting 6 8.9
2020-Jan-27 17:03 306 1 gusting 8 8.9
2020-Jan-27 16:53 334 2 gusting 8 8.3
2020-Jan-27 16:43 281 1 gusting 6 8.3
2020-Jan-27 16:32 235 1 gusting 7 8.3
2020-Jan-27 16:22 248 2 gusting 7 8.3
2020-Jan-27 16:12 245 2 gusting 9 8.9
2020-Jan-27 16:02 259 3 gusting 10 8.3
2020-Jan-27 15:52 254 3 gusting 7 8.3
2020-Jan-27 15:42 254 2 gusting 6 7.8
2020-Jan-27 15:32 257 2 gusting 6 7.8
2020-Jan-27 15:22 234 2 gusting 5 7.2
2020-Jan-27 15:12 233 2 gusting 6 6.7
2020-Jan-27 15:01 256 1 gusting 6 6.7
2020-Jan-27 14:51 240 4 gusting 6 6.7
2020-Jan-27 14:41 239 2 gusting 6 6.1
2020-Jan-27 14:31 231 2 gusting 5 6.1
2020-Jan-27 14:21 230 1 gusting 5 6.1
2020-Jan-27 14:11 278 1 gusting 5 5.6
2020-Jan-27 14:01 244 2 gusting 5 4.4
2020-Jan-27 13:51 237 2 gusting 5 3.9
2020-Jan-27 13:41 227 1 gusting 3 3.3
2020-Jan-27 13:31 235 1 gusting 3 2.8
2020-Jan-27 13:21 235 2 gusting 3 2.8
2020-Jan-27 13:11 227 0 gusting 2 2.8
2020-Jan-27 13:01 219 1 gusting 3 2.8
2020-Jan-27 12:51 213 1 gusting 3 2.2
2020-Jan-27 12:41 238 0 gusting 3 2.2
2020-Jan-27 12:31 246 1 gusting 3 2.2
2020-Jan-27 12:21 226 1 gusting 3 1.7
2020-Jan-27 12:11 234 0 gusting 2 1.7
2020-Jan-27 12:01 229 0 gusting 2 1.1
2020-Jan-27 11:51 271 0 gusting 1 1.1
2020-Jan-27 11:41 265 1.1
2020-Jan-27 11:31 304 0 gusting 0 0.6
2020-Jan-27 11:21 304 0.6
2020-Jan-27 11:11 304 0.6
2020-Jan-27 11:01 355 0.6
2020-Jan-27 10:51 355 0.6
2020-Jan-27 10:41 355 0 gusting 0 1.1
2020-Jan-27 10:31 355 0 gusting 0 1.1
2020-Jan-27 10:20 355 1.1
2020-Jan-27 10:10 355 1.7
2020-Jan-27 10:00 355 1.7
2020-Jan-27 09:50 355 0 gusting 1 1.7
2020-Jan-27 09:40 285 1.7
2020-Jan-27 09:30 285 1.7
2020-Jan-27 09:20 286 2.2
2020-Jan-27 09:10 286 2.2
2020-Jan-27 09:00 286 2.2